CZ-2D DEB, 38302

Orbit data source: Space-Track

CZ-2D DEB, 38302 is space debris in SSO originally from a launch on Tue, 15 Jun 2010 UTC launched from the Jiuquan Satellite Launch Center, China (JSC). Debris objects in space refer to the collection of defunct objects orbiting the Earth. Examples of debris include non-operational satellites, rocket bodies, and fragments generated from explosions, collisions, or faulty payload assembly.

Loading next visibility...
Identifier
38302, 2010-027G
Orbit
SSO
Country
Flag of CNCN / PRC
Related business
Manufacturer
Unknown
Mission
Spacecraft
Bus & Motor
Unknown
Mass
Unknown
Launch date (UTC)
2010-06-15 (16 years ago)
Launch vehicle
Unknown
Launch site
Jiuquan Satellite Launch Center, China (JSC)
Object type
Payload
Rocket body
Debris
Shape & HBR
Unknown shape, 0.1 m
Radar Cross Section
Small (<0.1 m²)

Expand to show TLE details & history
Last TLE update: 23 hours ago

TLE from 23 hours ago
0 CZ-2D DEB
1 38302U 10027G   26171.06331515  .00028497  00000-0  10677-2 0  9990
2 38302  97.4696 209.4364 0060698 250.6988 108.7679 15.25476529847007
Epoch: 2026-06-20T01:31Z
TLE epoch observation values (Epoch: 2026-06-20T01:31:10.428Z)
Latitude
-0.00006°
Longitude
-81.64036°
Altitude
506.091 km
Speed
7.604 km/s
True Right ascension
13h 57m 44s
True Declination
0° 00' 00"
Sunlit
Object was in full shadow at epoch
Visualization orbit readout
Latitude
Unknown
Longitude
Unknown
Altitude
Unknown
Speed
Unknown
Apparent Right ascension
Unknown
Apparent Declination
Unknown
Sunlit
N/A
Visualization observer readout
Local Sidereal Time
11:19:45
Azimuth
Unknown
Elevation
Unknown
Doppler factor
Unknown
Orbital elements
Apogee altitude
527.982 km
Perigee altitude
444.65 km
Semi-major axis
6,864.453 km
Eccentricity
0.00607
Inclination
97.4696°
RAAN
209.4364°
Arg. of periapsis
250.6988°
True anomaly
109.42485°
Mean anomaly
108.7679°
Eccentric anomaly
109.09654°
Mean motion
3.81623 °/min
Orbital period
94.33 mins
BSTAR
0.0010677
Loading maneuver chart data...
Computing Atmospheric mass density...
Loading historical data...
Loading historical data...
Loading historical data...
Loading historical data...
Loading historical data...
Loading historical data...
Loading historical data...

Documentation

Showing up to 5 results
|